This is the latest recevied weather packets stored in our database for station/object JS2WAD-13. If no packets are shown the sender has not sent any weather packets the latest 1 day(s).
| Time | Temp. | Humidity | Pressure | Rain* | Wind** | Luminosity | Snow |
|---|---|---|---|---|---|---|---|
| 1778021781 | 16.67° C | 85% | 913 hPa | 0 mm | 0.45 m/s, 41° | 25 W/m² | - |
| 1778021481 | 16.67° C | 85% | 913.1 hPa | 0 mm | 0 m/s | 32 W/m² | - |
| 1778021181 | 16.67° C | 85% | 912.9 hPa | 0 mm | 0 m/s | 33 W/m² | - |
| 1778020881 | 16.67° C | 85% | 913 hPa | 0 mm | 0 m/s | 33 W/m² | - |
| 1778020581 | 16.11° C | 84% | 912.9 hPa | 0 mm | 0 m/s | 44 W/m² | - |
| 1778020281 | 16.11° C | 83% | 913 hPa | 0 mm | 0 m/s | 44 W/m² | - |
| 1778019981 | 16.67° C | 83% | 913 hPa | 0 mm | 0.45 m/s, 39° | 25 W/m² | - |
| 1778019681 | 16.67° C | 80% | 913 hPa | 0 mm | 0.45 m/s, 40° | 19 W/m² | - |
| 1778019381 | 16.67° C | 81% | 913 hPa | 0 mm | 0 m/s | 21 W/m² | - |
| 1778019081 | 16.67° C | 80% | 913 hPa | 0 mm | 0 m/s | 19 W/m² | - |
| 1778018781 | 16.67° C | 80% | 912.8 hPa | 0 mm | 0 m/s | 28 W/m² | - |
| 1778018481 | 16.67° C | 78% | 912.9 hPa | 0 mm | 0 m/s | 21 W/m² | - |
| 1778018181 | 16.67° C | 78% | 912.9 hPa | 0 mm | 0 m/s | 19 W/m² | - |
| 1778017881 | 16.67° C | 76% | 912.8 hPa | 0 mm | 0 m/s | 16 W/m² | - |
| 1778017581 | 16.67° C | 76% | 912.7 hPa | 0 mm | 0 m/s | 14 W/m² | - |
| 1778017281 | 16.67° C | 76% | 912.8 hPa | 0 mm | 0 m/s | 11 W/m² | - |
| 1778016981 | 16.67° C | 75% | 912.7 hPa | 0 mm | 0 m/s | 11 W/m² | - |
| 1778016681 | 16.67° C | 74% | 912.7 hPa | 0 mm | 0 m/s | 12 W/m² | - |
| 1778016381 | 16.67° C | 74% | 912.6 hPa | 0 mm | 0 m/s | 12 W/m² | - |
| 1778016081 | 16.67° C | 74% | 912.5 hPa | 0 mm | 0 m/s | 11 W/m² | - |
| 1778015781 | 16.67° C | 74% | 912.6 hPa | 0 mm | 0 m/s | 7 W/m² | - |
| 1778015481 | 16.67° C | 73% | 912.6 hPa | 0 mm | 0 m/s | 7 W/m² | - |
| 1778015181 | 16.67° C | 73% | 912.5 hPa | 0 mm | 0 m/s | 7 W/m² | - |
| 1778014882 | 16.67° C | 73% | 912.4 hPa | 0 mm | 0 m/s | 7 W/m² | - |
| 1778014582 | 16.67° C | 72% | 912.3 hPa | 0 mm | 0 m/s | 5 W/m² | - |
* Rain latest hour (hover to see other rain measurements)
** Current wind speed in m/s (hover to see current wind gust speed)